Regional Weather Roundup
Issued by NWS

Home | Current Version | Previous Version | Text Only | Print | Product List | Glossary Off
Versions: 1 2 3 4 5 6 7 8 9 10 11 12 13 14 15 16 17 18 19 20 21 22 23 24 25 26 27 28 29 30 31 32 33 34 35 36 37 38 39 40 41 42 43 44 45 46 47 48 49 50

000
ASUS45 KCYS 020710
RWRWY

WYOMING REGIONAL WEATHER ROUNDUP
NATIONAL WEATHER SERVICE CHEYENNE WY
100 AM MDT SAT AUG 02 2014

NOTE:  "FAIR" INDICATES FEW OR NO CLOUDS BELOW 12,000 FEET
WITH NO SIGNIFICANT WEATHER AND/OR OBSTRUCTIONS TO VISIBILITY.

WYZ001-020800-
YELLOWSTONE NATIONAL PARK

CITY           SKY/WX    TMP DP  RH WIND       PRES   REMARKS
LK YELLOWSTONE   N/A     48  43  82 CALM      30.45F
W YELLOWSTONE  NOT AVBL

$$
WYZ002>013-054>058-071-098>099-020800-
NORTHERN WYOMING

CITY           SKY/WX    TMP DP  RH WIND       PRES   REMARKS
JACKSON        PTCLDY    55  45  67 CALM      30.34F
CODY           MOCLDY    64  46  52 W8        30.25S
GREYBULL       MOCLDY    73  45  36 W5        30.17S
WORLAND        MOCLDY    71  45  39 SE8       30.19S
SHERIDAN       MOCLDY    61  49  64 CALM      30.19R
BUFFALO        PTCLDY    65  40  39 W10       30.25S
GILLETTE       PTCLDY    55  46  71 SW3       30.19R
HULETT         FAIR      64  45  48 MISG      30.19
NEWCASTLE      FAIR      64  43  45 N7        30.19

$$
WYZ014>020-022>026-101>103-020800-
CENTRAL WYOMING

CITY           SKY/WX    TMP DP  RH WIND       PRES   REMARKS
BIG PINEY      CLOUDY    61  44  53 NE7       30.38S
PINEDALE       CLOUDY    61  41  48 NE8       30.39F
DUBOIS         FAIR      52  41  66 W13       30.40S
LANDER         MOCLDY    65  43  44 S5        30.28S
RIVERTON       MOCLDY    66  42  41 CALM      30.29S
CASPER         CLEAR     56  39  53 NW6       30.25R
DOUGLAS        CLEAR     59  44  57 W5        30.23R

$$
WYZ021-027>030-104>119-020800-
SOUTHERN WYOMING

CITY           SKY/WX    TMP DP  RH WIND       PRES   REMARKS
EVANSTON       PTCLDY    63  40  42 VRB3      30.35R
KEMMERER       SUNNY     57  39  51 N12       30.36F
FORT BRIDGER   FAIR      61  45  54 NE8       30.38R
ROCK SPRINGS   PTCLDY    64  38  38 NE17      30.32S
DIXON          FAIR      57  43  59 NE5       30.32S
RAWLINS        CLEAR     57  38  48 CALM      30.33S
SARATOGA       FAIR      54  41  62 SE7       30.34F
LARAMIE        CLEAR     50  44  80 S8        30.36F
CHEYENNE       CLEAR     54  49  83 W8        30.30S
TORRINGTON     CLEAR     58  49  72 NE7       30.17R
PINE BLUFFS    FAIR      54  50  87 W3        30.25F

$$


USA.gov is the U.S. government's official web portal to all federal, state and local government web resources and services.